Regional Weather Roundup
Issued by NWS Sioux Falls, SD

Home | Current Version | Previous Version | Text Only | Print | Product List | Glossary On
Versions: 1 2 3 4 5 6 7 8 9 10 11 12 13 14 15 16 17 18 19 20 21 22 23 24 25 26 27 28 29 30 31 32 33 34 35 36 37 38 39 40 41 42 43 44 45 46 47 48 49 50
000
ASUS43 KFSD 261410
RWRFSD

WEATHER ROUNDUP FOR SE SOUTH DAKOTA/SW MINNESOTA/NW IOWA
NATIONAL WEATHER SERVICE SIOUX FALLS SD
900 AM CDT SAT JUL 26 2014

NOTE: "FAIR" INDICATES FEW OR NO CLOUDS BELOW 12,000 FEET WITH NO
SIGNIFICANT WEATHER AND OR OBSTRUCTIONS TO VISIBILITY.


SDZ038>040-050-052>070-261500-
SOUTHEAST SOUTH DAKOTA

CITY           SKY/WX    TMP DP  RH WIND       PRES   REMARKS
CHAMBERLAIN    CLOUDY    70  65  86 N18G39    29.90R
HURON          LGT RAIN  68  67  96 S5        29.82F FOG
MADISON        LGT RAIN  66  66 100 SE5       29.86F
MITCHELL       PTSUNNY   72  70  93 N14G24    29.87R THUNDER
SIOUX FALLS    CLOUDY    73  70  90 E5        29.86R
WINNER         CLOUDY    75  70  84 S8        29.83R
YANKTON        MOSUNNY   73  72  94 SE9       29.83F
$$

MNZ071-072-080-081-089-090-097-098-261500-
SOUTHWEST MINNESOTA

CITY           SKY/WX    TMP DP  RH WIND       PRES   REMARKS
FAIRMONT       CLOUDY    73  61  64 S7        29.84R
JACKSON        PTSUNNY   72  68  88 NE9       29.82F
LUVERNE        CLOUDY    72  70  94 NE7       29.83R FOG
MARSHALL       CLOUDY    70  66  88 SE7       29.81F
MONTEVIDEO     PTSUNNY   70  70 100 S3        29.83F FOG
PIPESTONE      LGT RAIN  70  68  94 CALM      29.86R
REDWOOD FALLS  LGT RAIN  70  69  97 W6        29.86S FOG
TRACY          RAIN      71  69  93 CALM      29.86F
WINDOM         CLOUDY    73  70  88 CALM      29.85R
WORTHINGTON    PTSUNNY   73  70  88 W5        29.89R
$$

IAZ001>003-012>014-020>022-031-032-NEZ013-014-SDZ071-261500-
NORTHWEST IOWA

CITY           SKY/WX    TMP DP  RH WIND       PRES   REMARKS
CHEROKEE       CLOUDY    73  73  98 SW5       29.87R FOG
DENISON        CLOUDY    72  72 100 N6        29.87R FOG
ESTHERVILLE    PTSUNNY   71  69  93 NE8       29.79F FOG
LE MARS        PTSUNNY   73  72  94 SE6       29.84F
ORANGE CITY    PTSUNNY   73  70  88 S5        29.86R FOG
SHELDON        CLOUDY    72  72 100 S10       29.86R
SIOUX CITY     PTSUNNY   77  71  82 NE3       29.85F
SPENCER        PTSUNNY   73  70  90 E7        29.81F
STORM LAKE     PTSUNNY   72  72 100 CALM      29.87F
$$

ABBREVIATIONS USED IN REMARKS
   TC - TEMPERATURE IN CELSIUS
  WCI - WIND CHILL INDEX
   HX - HEAT INDEX
  VSB - VISIBILITY



USA.gov is the U.S. government's official web portal to all federal, state and local government web resources and services.